カタログに戻る

BREEZE-M R/B

運用中HEO
NORAD 40506·ROCKET BODY·🇷🇺 Russia

打ち上げ Mar 18, 2015 から Baikonur Cosmodrome

Loading…

次のパス (今後24時間)

TLE

最新Source: Space-Track

元期: Sep 13, 2026, 21:24 UTC

1 40506U 15012B   26256.89180481 -.00000149  00000-0  00000-0 0  9999
2 40506  19.7308 167.5149 5807057 200.9894 119.3482  2.11099921 88628

AllMySatでBREEZE-M R/Bをリアルタイム追跡

Download on the App Store